Back to catalog

STARLINK-11147

AliveCommunicationsVLEO
NORAD 60301·PAYLOAD·🇺🇸 United States

Launched Jul 28, 2024 from Vandenberg Space Force Base

Loading…

Next Passes (next 24 hours)

TLE

FreshSource: CelesTrak SupGP

Epoch: Sep 14, 2026, 14:48 UTC

1 60301C 24133A   26257.61715278  .00067276  00000+0  55411-3 0  2575
2 60301  53.1556 295.0981 0001225  85.3418 301.1567 15.69678168    11

Track STARLINK-11147 in real time with AllMySat

Download on the App Store